Tracking 21473 objects as of 19-Sep-2020
HD Live streaming from Space Station
objects crossing your sky now

DMSP 5D-3 F18 DEB

Track DMSP 5D-3 F18 DEB now!
10-day predictions


NORAD ID: 35954
Int'l Code: 2009-057D
Perigee: 834.0 km
Apogee: 842.6 km
Inclination: 98.6 °
Period: 101.5 minutes
Semi major axis: 7209 km
RCS: 0.06 m2 (small)
Launch date: October 18, 2009
Source: United States (US)
Launch site: AIR FORCE WESTERN TEST RANGE (AFWTR)

Note: This is SATELLITE DEBRIS
aabbcc
Your satellite tracking list
Your tracking list is empty




NASA's NSSDC Master Catalog

Two Line Element Set (TLE):
1 35954U 09057D   20262.56471634 +.00000284 +00000-0 +15845-3 0  9995
2 35954 098.5680 278.1639 0006032 082.9737 040.9579 14.18284082564228
Source of the keplerian elements: AFSPC